Location: ????????
(60.4333°N, 46.4710°E)
Time: 04:32:01
(UTC+00:00)

Cosmos 2322 Rocket - Pass Details

Date: 25 November 2020
Orbit: 834 x 849 km, 71.0° (Epoch: 19 January)

Event Time Altitude Azimuth Distance (km) Brightness Sun altitude
Rises 13:06:42 0° 221° (SW) 3,406 7.0 -7.2°
Reaches altitude 10° 13:09:09 10° 222° (SW) 2,472 6.1 -7.5°
Maximum altitude 13:14:51 83° 311° (NW) 860 2.3 -8.1°
Drops below altitude 10° 13:20:33 10° 40° (NE) 2,475 4.1 -8.7°
Enters shadow 13:20:52 - 41° (NE) 2,593 4.2 -8.7°
